QPF
0.10 0.11 0.11 0.09 0.08 0.09 0.11 0.11 0.10 0.08 0.07 0.06 0.05 0.05 0.04 0.03 0.03 0.02 0.02 0.01 0.01 0.01 0.01 0.00 0.00 0.00 0.00 0.00 0.00 0.00 0.00 0.00 0.01 0.01 0.01 0.02 0.02 0.03 0.03 0.02 0.02 0.02 0.02
0.08 0.08 0.10 0.07 0.06 0.06 0.06 0.07 0.08 0.07 0.07 0.06 0.05 0.05 0.04 0.02 0.02 0.01 0.01 0.01 0.01 0.01 0.01 0.00 0.00 0.00 0.00 0.00 0.00 0.00 0.00 0.00 0.00 0.01 0.01 0.01 0.01 0.02 0.02 0.02 0.02 0.02 0.01
0.05 0.06 0.08 0.07 0.07 0.07 0.05 0.06 0.08 0.08 0.07 0.05 0.04 0.02 0.02 0.02 0.02 0.01 0.01 0.01 0.01 0.01 0.01 0.01 0.01 0.00 0.00 0.00 0.00 0.00 0.00 0.00 0.00 0.00 0.01 0.01 0.01 0.01 0.01 0.01 0.01 0.01 0.00
0.04 0.04 0.05 0.06 0.05 0.05 0.06 0.04 0.05 0.05 0.05 0.03 0.02 0.02 0.01 0.01 0.01 0.01 0.01 0.01 0.00 0.00 0.00 0.00 0.00 0.00 0.00 0.00 0.00 0.00 0.00 0.00 0.00 0.00 0.00 0.01 0.01 0.01 0.01 0.01 0.01 0.01 0.00
0.03 0.04 0.04 0.05 0.04 0.03 0.04 0.04 0.03 0.02 0.02 0.02 0.02 0.01 0.01 0.01 0.01 0.00 0.00 0.00 0.00 0.00 0.00 0.00 0.00 0.00 0.00 0.00 0.00 0.00 0.00 0.00 0.00 0.00 0.00 0.01 0.01 0.02 0.02 0.01 0.01 0.01 0.01
0.03 0.03 0.03 0.03 0.02 0.02 0.03 0.03 0.03 0.02 0.01 0.01 0.02 0.01 0.01 0.00 0.00 0.00 0.00 0.01 0.01 0.01 0.01 0.01 0.00 0.00 0.00 0.00 0.00 0.00 0.00 0.00 0.00 0.01 0.01 0.01 0.02 0.02 0.02 0.02 0.02 0.02 0.02
0.02 0.02 0.02 0.03 0.02 0.02 0.02 0.02 0.03 0.02 0.01 0.01 0.01 0.01 0.01 0.01 0.00 0.00 0.00 0.01 0.01 0.01 0.01 0.01 0.00 0.00 0.00 0.00 0.00 0.00 0.00 0.00 0.00 0.00 0.01 0.01 0.02 0.02 0.01 0.01 0.02 0.01 0.02
0.02 0.02 0.02 0.02 0.02 0.02 0.01 0.02 0.02 0.02 0.02 0.01 0.01 0.01 0.01 0.00 0.00 0.00 0.00 0.01 0.01 0.01 0.00 0.01 0.01 0.01 0.00 0.00 0.00 0.01 0.01 0.00 0.00 0.00 0.01 0.01 0.01 0.01 0.01 0.01 0.01 0.02 0.03
0.02 0.02 0.02 0.02 0.02 0.02 0.02 0.01 0.02 0.02 0.01 0.01 0.01 0.01 0.01 0.00 0.00 0.00 0.00 0.01 0.01 0.01 0.01 0.00 0.00 0.01 0.00 0.00 0.00 0.01 0.02 0.01 0.00 0.00 0.00 0.00 0.00 0.00 0.00 0.01 0.02 0.03 0.04
0.03 0.03 0.02 0.03 0.03 0.03 0.02 0.02 0.02 0.02 0.02 0.01 0.01 0.01 0.01 0.01 0.00 0.00 0.00 0.01 0.01 0.01 0.01 0.01 0.00 0.00 0.00 0.00 0.01 0.02 0.02 0.02 0.01 0.01 0.01 0.01 0.01 0.01 0.00 0.01 0.03 0.03 0.04
0.02 0.02 0.02 0.03 0.03 0.02 0.02 0.02 0.02 0.02 0.03 0.02 0.01 0.01 0.01 0.00 0.00 0.00 0.00 0.00 0.00 0.01 0.01 0.01 0.00 0.00 0.00 0.00 0.00 0.01 0.01 0.00 0.01 0.01 0.01 0.02 0.02 0.03 0.03 0.02 0.02 0.03 0.04
0.01 0.02 0.02 0.03 0.02 0.02 0.02 0.02 0.02 0.03 0.03 0.03 0.02 0.02 0.02 0.01 0.00 0.00 0.00 0.00 0.00 0.01 0.01 0.01 0.00 0.00 0.00 0.00 0.00 0.01 0.00 0.00 0.01 0.02 0.02 0.03 0.03 0.03 0.03 0.01 0.01 0.02 0.03
0.01 0.02 0.03 0.02 0.02 0.02 0.02 0.01 0.01 0.02 0.01 0.01 0.01 0.02 0.02 0.02 0.00 0.00 0.00 0.00 0.00 0.01 0.01 0.00 0.00 0.00 0.01 0.01 0.01 0.00 0.01 0.01 0.02 0.02 0.02 0.02 0.02 0.01 0.01 0.01 0.01 0.01 0.01
0.02 0.02 0.02 0.03 0.03 0.02 0.01 0.01 0.01 0.01 0.00 0.01 0.01 0.02 0.02 0.01 0.01 0.00 0.00 0.00 0.00 0.00 0.00 0.00 0.01 0.01 0.01 0.01 0.01 0.01 0.01 0.01 0.01 0.01 0.01 0.01 0.01 0.01 0.01 0.02 0.02 0.02 0.02
0.02 0.02 0.01 0.01 0.02 0.01 0.00 0.00 0.00 0.00 0.00 0.00 0.01 0.01 0.01 0.01 0.00 0.00 0.00 0.00 0.00 0.00 0.00 0.01 0.01 0.01 0.02 0.02 0.01 0.01 0.00 0.00 0.00 0.00 0.00 0.00 0.01 0.01 0.01 0.00 0.00 0.00 0.01
0.02 0.02 0.02 0.01 0.01 0.01 0.01 0.00 0.00 0.00 0.00 0.00 0.00 0.00 0.00 0.00 0.00 0.00 0.00 0.00 0.00 0.00 0.00 0.01 0.01 0.01 0.02 0.01 0.01 0.00 0.00 0.00 0.00 0.00 0.00 0.00 0.00 0.00 0.01 0.01 0.01 0.01 0.01
0.01 0.02 0.02 0.01 0.01 0.01 0.01 0.01 0.02 0.01 0.00 0.00 0.00 0.00 0.00 0.00 0.00 0.00 0.00 0.00 0.00 0.00 0.00 0.01 0.01 0.01 0.01 0.00 0.00 0.00 0.00 0.00 0.00 0.00 0.00 0.00 0.00 0.00 0.00 0.01 0.01 0.01 0.01
0.01 0.01 0.01 0.01 0.01 0.01 0.01 0.01 0.02 0.03 0.03 0.01 0.00 0.00 0.00 0.00 0.00 0.00 0.00 0.00 0.01 0.00 0.01 0.01 0.01 0.01 0.00 0.00 0.00 0.00 0.00 0.00 0.00 0.00 0.00 0.00 0.00 0.00 0.00 0.00 0.00 0.00 0.00
0.01 0.01 0.01 0.00 0.00 0.01 0.00 0.00 0.01 0.01 0.01 0.01 0.01 0.01 0.00 0.00 0.00 0.00 0.00 0.01 0.01 0.01 0.00 0.00 0.01 0.00 0.00 0.00 0.00 0.00 0.00 0.00 0.00 0.00 0.00 0.00 0.00 0.00 0.00 0.00 0.00 0.00 0.00
0.00 0.00 0.00 0.00 0.00 0.00 0.00 0.00 0.00 0.01 0.00 0.00 0.01 0.01 0.00 0.01 0.02 0.01 0.01 0.01 0.01 0.00 0.00 0.00 0.00 0.00 0.00 0.00 0.00 0.00 0.00 0.00 0.00 0.00 0.00 0.00 0.00 0.00 0.00 0.00 0.00 0.00 0.00
0.00 0.00 0.00 0.00 0.00 0.00 0.00 0.00 0.00 0.00 0.00 0.01 0.01 0.00 0.00 0.01 0.01 0.01 0.00 0.00 0.00 0.00 0.00 0.00 0.00 0.00 0.00 0.00 0.00 0.00 0.00 0.00 0.00 0.00 0.00 0.00 0.00 0.00 0.00 0.00 0.00 0.00 0.00
0.00 0.00 0.00 0.00 0.00 0.00 0.00 0.00 0.00 0.00 0.00 0.00 0.00 0.00 0.00 0.00 0.00 0.00 0.00 0.00 0.00 0.00 0.00 0.00 0.00 0.00 0.00 0.00 0.00 0.00 0.00 0.00 0.00 0.00 0.00 0.00 0.00 0.00 0.00 0.00 0.00 0.00 0.00
0.00 0.00 0.00 0.00 0.00 0.00 0.00 0.00 0.00 0.00 0.00 0.00 0.00 0.00 0.00 0.00 0.00 0.00 0.00 0.00 0.00 0.00 0.00 0.00 0.00 0.00 0.00 0.00 0.00 0.00 0.00 0.00 0.00 0.00 0.00 0.00 0.00 0.00 0.00 0.00 0.00 0.00 0.00
0.00 0.00 0.00 0.00 0.00 0.00 0.00 0.00 0.00 0.00 0.00 0.00 0.00 0.00 0.00 0.00 0.00 0.00 0.00 0.00 0.00 0.00 0.00 0.00 0.00 0.00 0.00 0.00 0.00 0.00 0.00 0.00 0.00 0.00 0.00 0.00 0.00 0.00 0.00 0.00 0.00 0.00 0.00
0.00 0.00 0.00 0.00 0.00 0.00 0.00 0.00 0.00 0.00 0.00 0.00 0.00 0.00 0.00 0.00 0.00 0.00 0.00 0.00 0.00 0.00 0.00 0.00 0.00 0.00 0.00 0.00 0.00 0.00 0.00 0.00 0.00 0.00 0.00 0.00 0.00 0.00 0.00 0.00 0.00 0.00 0.00
0.00 0.00 0.00 0.00 0.00 0.00 0.00 0.00 0.00 0.00 0.00 0.00 0.00 0.00 0.00 0.00 0.00 0.00 0.00 0.00 0.00 0.00 0.00 0.00 0.00 0.00 0.00 0.00 0.00 0.00 0.00 0.00 0.00 0.00 0.00 0.00 0.00 0.00 0.00 0.00 0.00 0.00 0.00
MSLP
1020.46 1020.82 1021.24 1021.70 1022.17 1022.61 1022.99 1023.29 1023.49 1023.60 1023.64 1023.61 1023.56 1023.50 1023.47 1023.46 1023.50 1023.58 1023.67 1023.77 1023.85 1023.89 1023.88 1023.81 1023.69 1023.52 1023.32 1023.11 1022.90 1022.70 1022.53 1022.37 1022.24 1022.11 1021.98 1021.85 1021.71 1021.56 1021.40 1021.23 1021.05 1020.88 1020.72
1021.74 1022.04 1022.38 1022.75 1023.12 1023.45 1023.74 1023.95 1024.09 1024.16 1024.17 1024.13 1024.06 1024.00 1023.96 1023.94 1023.96 1024.01 1024.08 1024.15 1024.21 1024.23 1024.21 1024.15 1024.04 1023.88 1023.70 1023.50 1023.30 1023.10 1022.91 1022.72 1022.54 1022.36 1022.17 1021.96 1021.75 1021.51 1021.27 1021.02 1020.77 1020.53 1020.32
1022.66 1022.91 1023.19 1023.48 1023.77 1024.03 1024.26 1024.43 1024.55 1024.62 1024.64 1024.62 1024.59 1024.54 1024.51 1024.49 1024.49 1024.50 1024.52 1024.54 1024.55 1024.54 1024.50 1024.42 1024.31 1024.17 1024.01 1023.84 1023.65 1023.46 1023.26 1023.06 1022.85 1022.63 1022.39 1022.13 1021.85 1021.55 1021.24 1020.92 1020.61 1020.32 1020.05
1023.20 1023.41 1023.64 1023.88 1024.11 1024.33 1024.54 1024.71 1024.85 1024.96 1025.03 1025.08 1025.09 1025.10 1025.09 1025.07 1025.04 1025.02 1024.98 1024.94 1024.89 1024.83 1024.75 1024.65 1024.54 1024.42 1024.28 1024.13 1023.97 1023.79 1023.60 1023.39 1023.16 1022.91 1022.63 1022.33 1022.00 1021.65 1021.29 1020.93 1020.57 1020.22 1019.91
1023.41 1023.60 1023.80 1024.00 1024.20 1024.41 1024.61 1024.81 1024.99 1025.17 1025.32 1025.44 1025.54 1025.59 1025.62 1025.61 1025.57 1025.51 1025.42 1025.32 1025.21 1025.10 1024.98 1024.86 1024.75 1024.64 1024.52 1024.40 1024.26 1024.10 1023.91 1023.70 1023.46 1023.18 1022.87 1022.54 1022.18 1021.80 1021.40 1021.00 1020.60 1020.22 1019.87
1023.44 1023.61 1023.79 1023.96 1024.14 1024.34 1024.55 1024.77 1025.01 1025.25 1025.48 1025.68 1025.85 1025.97 1026.04 1026.05 1026.01 1025.92 1025.79 1025.64 1025.49 1025.33 1025.19 1025.06 1024.95 1024.85 1024.75 1024.65 1024.53 1024.38 1024.20 1023.97 1023.71 1023.41 1023.08 1022.72 1022.34 1021.93 1021.52 1021.10 1020.68 1020.27 1019.89
1023.44 1023.60 1023.75 1023.90 1024.05 1024.23 1024.44 1024.68 1024.95 1025.23 1025.52 1025.79 1026.02 1026.19 1026.30 1026.33 1026.29 1026.19 1026.04 1025.86 1025.68 1025.51 1025.35 1025.23 1025.13 1025.05 1024.97 1024.89 1024.77 1024.63 1024.44 1024.20 1023.92 1023.59 1023.23 1022.85 1022.45 1022.03 1021.61 1021.18 1020.75 1020.33 1019.93
1023.53 1023.68 1023.80 1023.92 1024.04 1024.18 1024.37 1024.60 1024.86 1025.16 1025.47 1025.78 1026.04 1026.24 1026.38 1026.42 1026.39 1026.30 1026.15 1025.97 1025.78 1025.61 1025.47 1025.36 1025.28 1025.22 1025.16 1025.08 1024.97 1024.82 1024.62 1024.36 1024.04 1023.69 1023.30 1022.89 1022.47 1022.05 1021.63 1021.20 1020.78 1020.36 1019.95
1023.80 1023.92 1024.02 1024.09 1024.17 1024.26 1024.40 1024.59 1024.82 1025.10 1025.40 1025.70 1025.97 1026.18 1026.32 1026.39 1026.37 1026.29 1026.15 1025.99 1025.82 1025.67 1025.55 1025.46 1025.39 1025.35 1025.30 1025.23 1025.12 1024.95 1024.72 1024.42 1024.08 1023.69 1023.27 1022.84 1022.41 1021.98 1021.56 1021.15 1020.75 1020.34 1019.94
1024.21 1024.32 1024.38 1024.41 1024.44 1024.48 1024.55 1024.68 1024.86 1025.10 1025.36 1025.63 1025.89 1026.09 1026.24 1026.31 1026.30 1026.23 1026.12 1025.97 1025.83 1025.70 1025.60 1025.53 1025.48 1025.44 1025.39 1025.31 1025.18 1024.99 1024.73 1024.40 1024.02 1023.60 1023.15 1022.70 1022.26 1021.84 1021.43 1021.03 1020.65 1020.27 1019.90
1024.69 1024.79 1024.82 1024.82 1024.80 1024.79 1024.81 1024.88 1025.01 1025.19 1025.41 1025.64 1025.87 1026.06 1026.20 1026.28 1026.28 1026.23 1026.13 1026.01 1025.88 1025.77 1025.67 1025.61 1025.55 1025.50 1025.44 1025.33 1025.17 1024.94 1024.65 1024.29 1023.88 1023.43 1022.97 1022.50 1022.06 1021.63 1021.24 1020.86 1020.50 1020.16 1019.81
1025.15 1025.24 1025.26 1025.23 1025.18 1025.13 1025.11 1025.14 1025.23 1025.38 1025.56 1025.77 1025.98 1026.16 1026.30 1026.37 1026.38 1026.34 1026.25 1026.13 1026.01 1025.89 1025.78 1025.69 1025.61 1025.53 1025.43 1025.29 1025.09 1024.83 1024.50 1024.12 1023.68 1023.22 1022.74 1022.27 1021.83 1021.41 1021.02 1020.67 1020.33 1020.01 1019.70
1025.49 1025.57 1025.58 1025.55 1025.48 1025.43 1025.40 1025.42 1025.49 1025.63 1025.81 1026.01 1026.21 1026.39 1026.53 1026.61 1026.62 1026.58 1026.48 1026.36 1026.21 1026.06 1025.92 1025.79 1025.66 1025.53 1025.38 1025.19 1024.95 1024.66 1024.31 1023.91 1023.46 1022.99 1022.52 1022.05 1021.61 1021.20 1020.83 1020.48 1020.16 1019.86 1019.57
1025.67 1025.74 1025.74 1025.71 1025.66 1025.61 1025.60 1025.64 1025.74 1025.89 1026.09 1026.31 1026.53 1026.72 1026.87 1026.95 1026.96 1026.91 1026.80 1026.64 1026.46 1026.26 1026.06 1025.87 1025.68 1025.49 1025.28 1025.05 1024.78 1024.46 1024.10 1023.69 1023.26 1022.80 1022.33 1021.88 1021.45 1021.05 1020.68 1020.34 1020.02 1019.73 1019.44
1025.67 1025.72 1025.72 1025.69 1025.66 1025.65 1025.67 1025.75 1025.90 1026.09 1026.33 1026.58 1026.83 1027.05 1027.21 1027.30 1027.31 1027.24 1027.10 1026.90 1026.67 1026.41 1026.15 1025.90 1025.65 1025.40 1025.15 1024.88 1024.59 1024.27 1023.91 1023.52 1023.10 1022.66 1022.22 1021.79 1021.37 1020.97 1020.60 1020.25 1019.93 1019.62 1019.33
1025.52 1025.55 1025.54 1025.52 1025.50 1025.52 1025.58 1025.71 1025.91 1026.16 1026.44 1026.74 1027.03 1027.27 1027.44 1027.53 1027.53 1027.44 1027.27 1027.04 1026.75 1026.45 1026.14 1025.83 1025.54 1025.25 1024.98 1024.70 1024.41 1024.11 1023.77 1023.41 1023.03 1022.62 1022.21 1021.79 1021.38 1020.98 1020.60 1020.24 1019.90 1019.57 1019.26
1025.31 1025.29 1025.26 1025.22 1025.21 1025.25 1025.35 1025.52 1025.76 1026.06 1026.39 1026.72 1027.04 1027.30 1027.48 1027.57 1027.55 1027.44 1027.25 1026.98 1026.66 1026.33 1025.99 1025.66 1025.35 1025.06 1024.80 1024.54 1024.28 1024.02 1023.73 1023.41 1023.06 1022.70 1022.30 1021.90 1021.49 1021.08 1020.68 1020.30 1019.92 1019.57 1019.22
1025.07 1025.00 1024.92 1024.86 1024.84 1024.89 1025.01 1025.20 1025.47 1025.79 1026.15 1026.51 1026.83 1027.09 1027.27 1027.35 1027.33 1027.20 1026.99 1026.71 1026.39 1026.05 1025.71 1025.40 1025.12 1024.86 1024.64 1024.44 1024.24 1024.02 1023.79 1023.52 1023.21 1022.87 1022.49 1022.09 1021.67 1021.24 1020.82 1020.40 1019.99 1019.60 1019.23
1024.85 1024.72 1024.59 1024.49 1024.45 1024.49 1024.60 1024.80 1025.08 1025.41 1025.77 1026.12 1026.44 1026.70 1026.86 1026.93 1026.89 1026.76 1026.54 1026.27 1025.97 1025.66 1025.37 1025.11 1024.89 1024.71 1024.56 1024.43 1024.30 1024.15 1023.97 1023.75 1023.47 1023.14 1022.76 1022.34 1021.90 1021.44 1020.98 1020.53 1020.08 1019.66 1019.26
1024.64 1024.45 1024.28 1024.15 1024.08 1024.09 1024.19 1024.38 1024.65 1024.97 1025.31 1025.65 1025.95 1026.18 1026.33 1026.38 1026.33 1026.20 1026.00 1025.76 1025.50 1025.26 1025.04 1024.87 1024.74 1024.65 1024.60 1024.55 1024.50 1024.42 1024.28 1024.08 1023.82 1023.48 1023.08 1022.62 1022.14 1021.64 1021.13 1020.64 1020.17 1019.72 1019.30
1024.44 1024.22 1024.01 1023.85 1023.75 1023.75 1023.83 1024.01 1024.25 1024.55 1024.87 1025.18 1025.45 1025.66 1025.78 1025.82 1025.77 1025.65 1025.48 1025.29 1025.10 1024.93 1024.81 1024.74 1024.72 1024.73 1024.78 1024.82 1024.83 1024.79 1024.68 1024.49 1024.21 1023.84 1023.40 1022.89 1022.35 1021.80 1021.25 1020.72 1020.22 1019.76 1019.34
1024.24 1024.00 1023.77 1023.60 1023.50 1023.48 1023.56 1023.72 1023.95 1024.22 1024.51 1024.79 1025.04 1025.21 1025.32 1025.35 1025.31 1025.21 1025.08 1024.95 1024.83 1024.75 1024.73 1024.76 1024.85 1024.96 1025.09 1025.20 1025.26 1025.25 1025.14 1024.93 1024.61 1024.19 1023.69 1023.12 1022.52 1021.91 1021.31 1020.75 1020.23 1019.77 1019.35
1024.02 1023.79 1023.58 1023.41 1023.32 1023.31 1023.38 1023.54 1023.76 1024.02 1024.29 1024.55 1024.76 1024.92 1025.01 1025.04 1025.01 1024.94 1024.85 1024.78 1024.74 1024.75 1024.82 1024.94 1025.11 1025.30 1025.49 1025.64 1025.73 1025.72 1025.60 1025.35 1024.98 1024.49 1023.92 1023.29 1022.62 1021.96 1021.32 1020.73 1020.21 1019.75 1019.35
1023.81 1023.60 1023.42 1023.28 1023.21 1023.22 1023.31 1023.47 1023.68 1023.93 1024.18 1024.42 1024.62 1024.77 1024.85 1024.88 1024.87 1024.83 1024.78 1024.77 1024.79 1024.87 1025.01 1025.20 1025.43 1025.68 1025.90 1026.08 1026.16 1026.14 1025.98 1025.68 1025.26 1024.71 1024.08 1023.38 1022.67 1021.97 1021.30 1020.70 1020.18 1019.73 1019.36
1023.62 1023.45 1023.30 1023.20 1023.16 1023.19 1023.30 1023.46 1023.67 1023.91 1024.15 1024.38 1024.56 1024.70 1024.78 1024.81 1024.82 1024.81 1024.80 1024.83 1024.90 1025.03 1025.22 1025.46 1025.73 1026.00 1026.24 1026.41 1026.49 1026.44 1026.25 1025.91 1025.44 1024.85 1024.17 1023.44 1022.69 1021.97 1021.29 1020.69 1020.18 1019.75 1019.40
1023.45 1023.33 1023.22 1023.16 1023.14 1023.19 1023.31 1023.47 1023.67 1023.90 1024.12 1024.33 1024.50 1024.62 1024.70 1024.75 1024.77 1024.78 1024.80 1024.86 1024.97 1025.14 1025.36 1025.62 1025.91 1026.19 1026.43 1026.59 1026.65 1026.58 1026.37 1026.01 1025.52 1024.91 1024.22 1023.48 1022.73 1022.01 1021.34 1020.75 1020.25 1019.84 1019.51
Thickness
5603 5602 5601 5599 5598 5596 5594 5592 5590 5588 5588 5587 5586 5585 5585 5584 5584 5585 5585 5583 5582 5581 5580 5579 5576 5576 5577 5576 5575 5574 5573 5572 5569 5565 5561 5556 5550 5548 5546 5543 5542 5540 5538
5589 5588 5586 5585 5585 5584 5582 5579 5577 5577 5577 5576 5574 5573 5573 5573 5572 5573 5573 5572 5571 5569 5567 5565 5564 5562 5561 5562 5561 5560 5558 5555 5555 5550 5549 5546 5541 5538 5535 5533 5533 5532 5528
5576 5574 5572 5571 5571 5570 5568 5566 5566 5566 5565 5564 5563 5562 5562 5561 5561 5561 5561 5560 5558 5557 5555 5553 5551 5550 5549 5548 5547 5547 5546 5543 5540 5539 5538 5534 5533 5529 5526 5526 5525 5521 5521
5563 5562 5560 5558 5558 5558 5557 5555 5554 5554 5554 5553 5552 5552 5552 5551 5551 5550 5549 5548 5546 5544 5542 5540 5539 5537 5535 5534 5534 5533 5532 5531 5530 5530 5529 5527 5524 5521 5518 5518 5517 5515 5512
5553 5551 5549 5548 5547 5547 5546 5544 5543 5543 5544 5544 5543 5542 5542 5541 5539 5538 5538 5538 5536 5534 5531 5529 5526 5522 5519 5519 5521 5521 5521 5522 5523 5522 5521 5519 5516 5512 5511 5509 5508 5506 5505
5542 5541 5540 5539 5538 5537 5536 5534 5533 5533 5534 5534 5533 5533 5531 5528 5523 5523 5525 5527 5526 5524 5522 5519 5517 5514 5510 5508 5506 5505 5504 5508 5510 5510 5512 5509 5505 5504 5501 5499 5499 5498 5498
5533 5532 5531 5530 5529 5529 5528 5526 5525 5524 5524 5524 5523 5522 5520 5514 5512 5512 5513 5516 5516 5514 5512 5511 5511 5506 5504 5504 5501 5498 5497 5495 5492 5495 5498 5497 5496 5495 5491 5492 5491 5490 5488
5525 5525 5523 5522 5521 5520 5519 5518 5517 5516 5515 5514 5513 5512 5509 5504 5502 5502 5503 5506 5506 5504 5503 5501 5500 5498 5495 5493 5496 5496 5495 5493 5489 5489 5489 5488 5488 5485 5483 5483 5483 5483 5484
5517 5516 5515 5514 5513 5512 5511 5509 5508 5508 5507 5506 5504 5503 5501 5496 5492 5493 5493 5499 5498 5497 5495 5493 5491 5490 5483 5483 5486 5489 5489 5488 5485 5482 5481 5480 5479 5477 5476 5478 5482 5483 5484
5508 5508 5507 5506 5505 5504 5503 5502 5501 5500 5499 5499 5496 5495 5493 5489 5484 5484 5484 5494 5493 5493 5490 5487 5480 5479 5476 5476 5480 5482 5483 5482 5482 5483 5481 5479 5478 5477 5474 5473 5477 5479 5479
5502 5501 5500 5498 5497 5496 5495 5494 5494 5493 5492 5490 5489 5487 5485 5481 5477 5476 5476 5483 5486 5486 5486 5484 5478 5472 5471 5471 5471 5474 5472 5471 5477 5480 5481 5481 5480 5478 5477 5475 5474 5473 5473
5496 5495 5493 5491 5491 5490 5488 5487 5487 5486 5485 5484 5483 5481 5479 5476 5472 5470 5470 5470 5471 5477 5478 5477 5471 5467 5466 5466 5467 5466 5467 5467 5475 5477 5478 5477 5477 5476 5475 5474 5472 5470 5468
5490 5488 5487 5485 5484 5483 5482 5482 5482 5481 5482 5482 5480 5478 5476 5473 5469 5465 5465 5465 5465 5469 5469 5464 5463 5463 5463 5464 5463 5464 5465 5469 5471 5472 5473 5473 5473 5472 5472 5472 5472 5471 5470
5485 5483 5482 5480 5479 5477 5477 5478 5478 5477 5477 5476 5475 5473 5471 5470 5468 5465 5465 5466 5463 5465 5466 5463 5460 5460 5461 5461 5462 5464 5465 5464 5464 5467 5468 5469 5470 5471 5472 5471 5472 5472 5472
5481 5480 5480 5478 5476 5474 5473 5469 5470 5466 5465 5466 5467 5467 5466 5465 5455 5451 5454 5459 5459 5460 5460 5465 5465 5464 5464 5463 5463 5462 5461 5462 5463 5463 5464 5467 5468 5469 5470 5471 5470 5471 5472
5479 5479 5478 5477 5474 5473 5470 5466 5458 5458 5455 5454 5453 5454 5455 5451 5449 5448 5448 5449 5451 5452 5456 5462 5461 5461 5460 5459 5459 5459 5459 5458 5458 5459 5461 5463 5465 5466 5467 5468 5470 5470 5471
5477 5476 5475 5475 5473 5471 5470 5467 5464 5457 5452 5451 5450 5449 5448 5447 5446 5446 5446 5447 5448 5450 5457 5458 5457 5456 5455 5454 5454 5454 5454 5454 5453 5456 5458 5460 5462 5464 5466 5467 5469 5469 5470
5477 5473 5472 5472 5471 5470 5469 5468 5467 5464 5462 5458 5451 5448 5447 5446 5445 5445 5446 5447 5453 5453 5456 5455 5453 5452 5451 5450 5450 5449 5450 5451 5452 5453 5455 5457 5459 5462 5464 5466 5468 5468 5469
5477 5476 5473 5472 5471 5470 5469 5468 5467 5465 5464 5462 5459 5452 5448 5447 5445 5446 5447 5453 5455 5454 5453 5451 5449 5448 5447 5447 5446 5447 5447 5448 5449 5451 5453 5454 5457 5460 5463 5466 5468 5468 5469
5477 5470 5470 5473 5472 5471 5470 5469 5468 5466 5465 5463 5461 5459 5456 5455 5455 5454 5453 5452 5452 5451 5449 5448 5447 5445 5444 5445 5445 5446 5447 5448 5449 5451 5453 5454 5457 5460 5463 5466 5469 5471 5473
5481 5477 5469 5475 5475 5474 5472 5471 5469 5468 5466 5464 5462 5458 5451 5458 5458 5456 5454 5452 5451 5449 5446 5445 5445 5445 5444 5443 5444 5444 5445 5447 5448 5450 5452 5454 5457 5460 5463 5467 5470 5473 5475
5484 5483 5482 5480 5478 5476 5474 5473 5472 5471 5469 5467 5465 5462 5453 5458 5459 5458 5455 5452 5450 5447 5445 5443 5444 5444 5441 5441 5441 5442 5444 5446 5447 5448 5450 5454 5457 5461 5465 5468 5471 5474 5476
5487 5487 5486 5484 5482 5475 5477 5477 5476 5474 5473 5471 5469 5467 5465 5463 5461 5458 5456 5453 5450 5448 5445 5444 5443 5443 5441 5440 5440 5441 5443 5444 5443 5445 5448 5453 5458 5463 5466 5469 5472 5475 5477
5493 5492 5491 5489 5487 5485 5484 5482 5480 5478 5476 5474 5472 5470 5468 5464 5463 5460 5458 5455 5452 5450 5447 5445 5444 5442 5441 5441 5441 5443 5441 5440 5441 5445 5448 5453 5458 5464 5468 5470 5474 5476 5477
5499 5497 5496 5495 5492 5491 5488 5486 5484 5482 5480 5478 5476 5474 5472 5469 5467 5464 5461 5458 5455 5453 5450 5448 5447 5445 5444 5443 5443 5443 5442 5442 5444 5446 5449 5455 5461 5465 5469 5472 5474 5476 5477
5504 5502 5501 5500 5497 5495 5493 5491 5489 5486 5485 5482 5480 5478 5476 5474 5471 5468 5466 5462 5460 5458 5454 5453 5450 5448 5447 5447 5445 5444 5445 5446 5448 5450 5452 5458 5464 5467 5469 5473 5475 5477 5478